Regional Weather Roundup
Issued by NWS

Home | Current Version | Previous Version | Graphics & Text | Print | Product List | Glossary On
Versions: 1 2 3 4 5 6 7 8 9 10 11 12 13 14 15 16 17 18 19 20 21 22 23 24 25 26 27 28 29 30 31 32 33 34 35 36 37 38 39 40 41 42 43 44 45 46 47 48 49 50
418
ASUS43 KOAX 270910
RWRNE

WEATHER ROUNDUP FOR NEBRASKA
NATIONAL WEATHER SERVICE OMAHA NE
400 AM CDT SAT AUG 27 2016

NOTES: SATELLITE DATA IS BEING USED TO AUGMENT CLOUD COVER ABOVE
       12000 FEET.
       "FAIR" INDICATES FEW OR NO CLOUDS BELOW 12,000 FEET WITH NO
       SIGNIFICANT WEATHER AND/OR OBSTRUCTIONS TO VISIBILITY.

  * THESE STATIONS DO NOT REPORT WEATHER SUCH AS RAIN...SNOW OR FOG.

NEZ001>004-019>022-054>056-271000-
NEBRASKA PANHANDLE

CITY           SKY/WX    TMP DP  RH WIND       PRES   REMARKS
SCOTTSBLUFF    CLEAR     52  50  93 SE6       30.05F
ALLIANCE       CLOUDY    55  55 100 SE8       30.05F FOG
CHADRON        CLOUDY    56  50  80 W3        30.02R
KIMBALL        CLOUDY    52  52 100 W5        30.09S
SIDNEY         CLOUDY    53  52  96 E5        30.09R FOG
$$

NEZ057>060-069>072-079>082-271000-
SOUTHWEST NEBRASKA

CITY           SKY/WX    TMP DP  RH WIND       PRES   REMARKS
NORTH PLATTE   FOG       54  52  93 CALM      30.07R VSB 1/4
IMPERIAL       FOG       50  49  96 CALM      30.08S VSB 3/4
LEXINGTON      CLOUDY    54  52  95 NW6       30.04F FOG
MCCOOK         MOCLDY    53  52  96 N6        30.05F
OGALLALA       CLOUDY    58  56  92 SE3       30.07S
$$

NEZ005>010-023>029-035>040-094-271000-
NORTH CENTRAL NEBRASKA

CITY           SKY/WX    TMP DP  RH WIND       PRES   REMARKS
VALENTINE      PTCLDY    54  52  93 S9        30.00F
AINSWORTH      PTCLDY    53  53 100 S3        30.04F FOG
BROKEN BOW     MOCLDY    57  57 100 SW3       30.03F FOG
O`NEILL        FOG       62  61  96 SW3       30.03R VSB 1/4
ORD            CLOUDY    64  61  90 S3        30.01F
THEDFORD       FOG       52  52  99 CALM      30.06F VSB 1/4
$$

NEZ041-046>049-061>064-073>077-083>087-271000-
SOUTH CENTRAL NEBRASKA

CITY           SKY/WX    TMP DP  RH WIND       PRES   REMARKS
GRAND ISLAND   CLOUDY    65  64  97 W5        30.02S FOG
AURORA         FOG       65  65 100 SW5       30.01F VSB 1/2
HASTINGS       FOG       63  62  97 NW5       30.03S VSB 1/2
HEBRON         MOCLDY    67  66  97 SE7       30.00R
HOLDREGE       CLOUDY    56  55  95 W3        30.04F
KEARNEY *      CLOUDY    61  57  88 W5        30.02F
YORK           CLOUDY    66  64  94 SW3       30.01S FOG
$$

NEZ011>018-030>034-042>045-271000-
NORTHEAST NEBRASKA

CITY           SKY/WX    TMP DP  RH WIND       PRES   REMARKS
NORFOLK        CLOUDY    63  62  97 CALM      30.01S FOG
ALBION         CLOUDY    63  61  94 SW3       30.01F FOG
BLAIR          CLOUDY    65  64  96 E3        30.00R FOG
FREMONT        CLOUDY    65  65  98 E3        30.01R FOG
TEKAMAH        CLOUDY    65  63  93 CALM      30.00S
WAYNE          CLOUDY    64  63  97 CALM      30.01S FOG
$$

NEZ050>053-065>068-078-088>093-271000-
SOUTHEAST NEBRASKA

CITY           SKY/WX    TMP DP  RH WIND       PRES   REMARKS
LINCOLN        CLOUDY    67  66  97 S3        30.01R
OMAHA EPPLEY   CLOUDY    66  63  90 CALM      30.00S
BEATRICE       RAIN      67  66  99 S8        30.00S
FALLS CITY     CLOUDY    68  68 100 CALM      29.99S FOG
NEBRASKA CITY  FOG       66  66 100 S6        30.00F VSB 1/2
PLATTSMOUTH    CLOUDY    66  66  99 SE3       29.99S FOG
$$

NEZ044-045-051>053-067-271000-
OMAHA AREA

CITY           SKY/WX    TMP DP  RH WIND       PRES   REMARKS
OMAHA EPPLEY   CLOUDY    66  63  90 CALM      30.00S
BLAIR          CLOUDY    65  64  96 E3        30.00R FOG
FREMONT        CLOUDY    65  65  98 E3        30.01R FOG
MILLARD        CLOUDY    67  65  94 CALM      30.00R
OFFUTT AFB     CLOUDY    66  66 100 CALM      29.99R
PLATTSMOUTH    CLOUDY    66  66  99 SE3       29.99S FOG
WAHOO          FOG       66  65  96 CALM      30.00S VSB 1/2
$$




USA.gov is the U.S. government's official web portal to all federal, state and local government web resources and services.